GFSMW_850_dewp_141.txt.gz
Dewpoint
-2 -1 -1 -0 -1 -2 -2 -2 -3 -4 -4 -3 -0 -1 -1 0 0 1 1 1 0 0 0 -0 -1 -2 -5 -11 -21 -23 -23 -23 -10 3 7 6 6 5 5 4 3 2 -3
-4 -3 -2 -2 -2 -1 -0 -2 -1 -2 -3 -1 -0 -1 -1 -0 0 1 0 -0 -0 -0 -1 -1 -2 -5 -14 -20 -23 -25 -25 -24 -22 -18 0 4 4 5 3 1 2 -2 -3
-7 -5 -5 -5 -3 -1 -2 -0 -1 -1 -2 0 -0 -2 -1 0 1 1 0 -1 -2 -3 -5 -8 -11 -16 -19 -23 -25 -26 -25 -23 -22 -21 -20 -14 -8 -6 -6 1 2 -3 -10
-10 -10 -8 -7 -5 -3 -1 -0 -0 0 -0 0 -0 -2 -1 -0 1 1 -0 -2 -3 -6 -13 -17 -17 -18 -20 -22 -24 -26 -25 -23 -21 -19 -18 -18 -18 -15 -14 -10 -6 -9 -18
-9 -9 -9 -9 -5 -2 0 1 0 1 0 0 -1 -2 -2 -1 0 -1 -2 -3 -5 -10 -16 -15 -16 -17 -18 -20 -22 -25 -26 -23 -21 -18 -17 -17 -18 -17 -14 -13 -14 -18 -20
-5 -5 -5 -4 -2 0 1 1 0 0 -0 -1 -2 -3 -2 -1 -1 -2 -3 -4 -8 -14 -15 -14 -14 -14 -15 -16 -19 -22 -25 -25 -23 -19 -17 -18 -19 -18 -18 -17 -18 -19 -20
-1 -0 -1 -1 -1 -1 0 0 -0 -1 -1 -3 -2 -3 -3 -2 -2 -2 -3 -4 -10 -15 -14 -14 -12 -12 -12 -12 -14 -16 -20 -24 -25 -22 -18 -19 -19 -18 -18 -19 -20 -20 -20
-0 -0 -0 -0 -1 -1 -2 -2 -3 -3 -2 -2 -2 -3 -3 -3 -2 -2 -3 -5 -9 -14 -14 -13 -12 -11 -10 -10 -10 -12 -15 -19 -23 -24 -21 -19 -19 -19 -19 -20 -20 -21 -22
-0 -1 -3 -3 -3 -3 -3 -3 -2 -2 -2 -1 -1 -2 -2 -2 -2 -1 -2 -3 -5 -9 -12 -13 -12 -11 -9 -9 -8 -9 -9 -11 -14 -18 -22 -22 -20 -19 -19 -19 -20 -20 -20
-2 -2 -3 -5 -7 -8 -7 -4 -3 -2 -1 -1 -1 -2 -2 -1 -1 -1 -1 -1 -3 -5 -8 -11 -12 -11 -10 -8 -8 -7 -7 -7 -8 -10 -14 -19 -21 -20 -19 -18 -18 -19 -19
-3 -6 -8 -8 -8 -8 -7 -7 -4 -2 -1 -1 -0 -1 -1 -1 -1 -1 -1 -1 -1 -2 -2 -3 -7 -10 -10 -10 -8 -7 -7 -6 -6 -7 -10 -14 -19 -20 -20 -18 -17 -17 -17
-8 -8 -8 -8 -8 -7 -7 -7 -6 -4 -2 -1 -1 -2 -2 -1 -1 -2 -2 -1 -0 0 0 1 1 -0 -3 -8 -9 -9 -8 -7 -6 -6 -7 -7 -14 -18 -20 -19 -18 -17 -17
-7 -7 -7 -8 -8 -9 -8 -6 -6 -6 -6 -6 -5 -5 -5 -5 -4 -4 -3 -2 -2 -2 -0 1 1 1 1 1 -2 -6 -9 -8 -7 -6 -6 -6 -9 -11 -17 -19 -18 -16 -15
-7 -7 -7 -7 -8 -9 -8 -7 -6 -6 -6 -6 -6 -6 -6 -6 -6 -5 -5 -5 -4 -4 -3 -1 0 1 1 1 1 -0 -3 -6 -8 -7 -7 -6 -6 -7 -12 -18 -19 -17 -15
-7 -7 -7 -7 -8 -8 -7 -6 -6 -6 -6 -6 -5 -6 -6 -6 -6 -7 -7 -7 -6 -6 -4 -3 -2 -1 0 1 1 1 0 -2 -5 -7 -7 -7 -7 -7 -8 -12 -14 -19 -18
-7 -7 -7 -7 -6 -6 -6 -6 -6 -6 -6 -6 -8 -8 -9 -9 -9 -8 -8 -8 -7 -7 -6 -5 -3 -2 -1 0 1 2 1 -0 -3 -5 -6 -7 -7 -7 -7 -9 -3 -15 -19
-7 -7 -7 -7 -7 -6 -6 -7 -9 -10 -9 -9 -8 -7 -7 -7 -7 -7 -7 -8 -8 -9 -9 -8 -7 -5 -4 -1 1 2 2 1 -1 -3 -4 -6 -6 -7 -7 -7 -1 -8 -16
-7 -8 -7 -6 -5 -7 -9 -8 -7 -7 -7 -7 -7 -7 -7 -8 -8 -7 -7 -6 -6 -6 -6 -6 -5 -4 -5 -3 -1 0 2 1 0 -0 -2 -4 -5 -6 -7 -1 -1 -4 -7
-9 -6 -5 -7 -8 -7 -6 -6 -7 -7 -7 -8 -9 -9 -9 -9 -8 -8 -7 -6 -5 -6 -5 -5 -5 -4 -5 -3 -2 -1 1 1 1 0 -1 -3 -4 -5 -4 -3 -2 -2 -5
-6 -6 -8 -7 -6 -6 -8 -10 -13 -17 -19 -19 -19 -17 -15 -14 -12 -10 -9 -7 -5 -5 -5 -5 -5 -5 -5 -4 -3 -1 0 0 0 -0 -1 -2 -4 -5 -3 -3 -4 -3 -7
-6 -7 -6 -6 -8 -11 -16 -18 -19 -21 -24 -26 -28 -28 -26 -24 -19 -16 -15 -14 -11 -8 -6 -5 -4 -5 -5 -5 -4 -3 -1 -1 -0 -1 -1 -2 -4 -4 -2 -3 -3 -4 -9
-6 -6 -7 -11 -14 -17 -20 -22 -23 -25 -27 -29 -30 -30 -29 -28 -24 -22 -22 -20 -17 -14 -13 -10 -7 -5 -4 -4 -4 -4 -3 -2 -2 -1 -2 -2 -4 -4 -3 -3 -4 -7 -11
-8 -11 -14 -17 -20 -20 -22 -24 -25 -26 -26 -27 -29 -30 -30 -29 -27 -24 -23 -19 -15 -14 -13 -12 -12 -12 -8 -4 -4 -4 -4 -4 -3 -3 -3 -3 -4 -6 -5 -4 -6 -11 -12
-13 -17 -20 -18 -18 -20 -23 -24 -24 -25 -25 -27 -27 -27 -25 -24 -24 -23 -21 -17 -13 -11 -10 -9 -9 -9 -11 -11 -7 -3 -4 -4 -4 -4 -4 -4 -5 -6 -5 -5 -7 -10 -10
-20 -20 -19 -18 -19 -20 -20 -21 -23 -24 -26 -26 -24 -22 -20 -19 -18 -18 -17 -16 -14 -9 -8 -9 -8 -6 -6 -7 -7 -7 -4 -4 -5 -5 -6 -6 -7 -7 -6 -7 -6 -7 -7
-19 -19 -20 -20 -18 -18 -17 -19 -23 -25 -25 -22 -18 -15 -13 -13 -11 -10 -10 -10 -11 -10 -9 -10 -10 -8 -5 -5 -5 -5 -5 -4 -5 -6 -5 -6 -7 -7 -7 -7 -6 -6 -7

GFSMW_850_dewp_144.txt.gz
Dewpoint
-3 -1 -0 -0 -1 -2 -3 -2 -2 -2 -2 -4 -3 -1 -2 -2 -1 -0 0 0 -1 -1 -0 -1 -2 -3 -8 -18 -22 -24 -24 -23 -16 -5 3 5 5 5 5 4 2 0 -5
-3 -1 -1 -1 -2 -2 -1 -1 -1 -2 -1 -3 -1 -1 -2 -2 -1 -0 -0 -1 -1 -1 -2 -3 -5 -9 -17 -21 -24 -25 -25 -23 -21 -19 -10 4 2 3 3 2 -3 -1 -7
-5 -4 -3 -4 -3 -3 -2 -1 -0 -1 -1 -2 -0 -0 -2 -2 -1 0 -0 -1 -3 -4 -7 -10 -16 -18 -19 -21 -23 -25 -25 -23 -21 -20 -19 -15 -11 -4 -8 -5 -2 -4 -9
-7 -7 -5 -6 -6 -5 -2 -1 0 -1 -0 -1 -0 -1 -3 -2 -1 -0 -1 -2 -3 -4 -9 -16 -17 -17 -18 -19 -21 -24 -26 -25 -22 -20 -18 -17 -17 -15 -13 -10 -8 -8 -14
-10 -10 -10 -10 -7 -5 -2 0 0 -0 0 -0 -1 -2 -4 -3 -1 -1 -2 -2 -3 -6 -12 -16 -15 -15 -15 -16 -18 -21 -24 -25 -24 -21 -18 -17 -18 -18 -15 -14 -13 -16 -19
-8 -7 -7 -8 -8 -6 -2 0 0 0 0 -1 -2 -4 -5 -3 -2 -2 -2 -2 -4 -7 -12 -15 -14 -13 -13 -13 -14 -15 -18 -22 -24 -24 -21 -18 -18 -18 -18 -18 -18 -18 -19
-5 -4 -3 -3 -3 -2 -1 0 0 -1 -1 -2 -3 -3 -3 -3 -3 -2 -2 -2 -3 -5 -11 -14 -14 -13 -12 -11 -11 -11 -12 -14 -17 -21 -23 -22 -19 -19 -18 -18 -18 -18 -19
-0 -1 -1 -1 -1 -1 -1 -1 -2 -3 -2 -2 -2 -2 -2 -2 -3 -2 -1 -2 -3 -4 -8 -13 -13 -13 -11 -10 -9 -9 -9 -9 -11 -14 -18 -21 -21 -19 -19 -18 -18 -18 -19
0 -0 -1 -2 -3 -3 -3 -3 -3 -3 -2 -2 -2 -1 -0 -1 -2 -1 -2 -1 -2 -2 -4 -7 -10 -12 -12 -11 -10 -8 -8 -7 -8 -8 -10 -13 -18 -20 -19 -18 -18 -17 -17
-1 -2 -2 -4 -7 -8 -9 -8 -6 -4 -3 -2 -2 -2 -2 -2 -1 -1 -1 -1 -1 -1 -1 -3 -5 -6 -9 -11 -11 -10 -8 -7 -7 -7 -7 -8 -11 -13 -17 -19 -19 -18 -16
-2 -4 -8 -9 -9 -9 -9 -9 -8 -7 -5 -2 -1 -1 -1 -0 -0 -1 -1 -0 -0 -0 0 -0 -0 -0 -1 -2 -6 -9 -10 -9 -8 -7 -6 -6 -7 -8 -11 -15 -18 -19 -17
-5 -8 -8 -8 -8 -8 -9 -9 -8 -7 -6 -4 -2 -2 -2 -2 -3 -2 -2 -2 -2 -2 -1 -1 -1 -0 0 0 0 0 -1 -5 -9 -9 -8 -7 -6 -6 -7 -10 -13 -17 -17
-7 -8 -8 -8 -8 -8 -9 -10 -7 -6 -6 -6 -6 -6 -6 -5 -5 -5 -5 -5 -5 -4 -4 -3 -3 -2 -1 1 1 1 1 -0 -2 -5 -8 -8 -7 -7 -6 -7 -9 -12 -17
-7 -7 -7 -7 -8 -8 -9 -9 -7 -7 -7 -6 -6 -6 -6 -6 -6 -6 -6 -7 -7 -7 -6 -6 -5 -4 -3 -1 -0 1 1 1 1 -0 -2 -5 -8 -8 -7 -7 -7 -9 -14
-7 -7 -7 -7 -8 -9 -8 -7 -6 -6 -6 -6 -6 -7 -8 -9 -9 -9 -9 -9 -9 -9 -9 -9 -8 -7 -5 -4 -2 -0 1 1 1 1 -0 -2 -4 -7 -7 -7 -7 -8 -11
-7 -7 -7 -7 -8 -7 -6 -5 -5 -7 -9 -9 -8 -7 -7 -7 -7 -8 -8 -8 -7 -7 -7 -6 -7 -8 -8 -7 -5 -3 -1 1 2 1 1 0 -2 -5 -7 -7 -7 -8 -9
-7 -7 -7 -7 -6 -5 -6 -8 -9 -7 -7 -7 -7 -8 -9 -10 -10 -10 -10 -9 -8 -7 -7 -6 -6 -5 -6 -5 -4 -4 -2 -1 -0 1 1 1 -0 -2 -4 -6 -7 -8 -9
-7 -7 -7 -6 -5 -7 -8 -6 -6 -7 -8 -10 -13 -16 -20 -22 -22 -21 -17 -14 -12 -10 -8 -7 -6 -5 -5 -5 -4 -4 -3 -2 -2 -1 0 1 0 -1 -2 -5 -6 -7 -8
-7 -6 -5 -6 -8 -6 -6 -7 -9 -15 -18 -20 -22 -26 -27 -28 -28 -28 -27 -25 -22 -20 -17 -14 -10 -7 -6 -5 -5 -4 -4 -3 -2 -1 -0 1 0 0 -2 -4 -5 -3 -6
-7 -5 -6 -7 -6 -6 -9 -16 -18 -20 -23 -24 -26 -28 -29 -29 -29 -29 -28 -28 -26 -24 -24 -24 -21 -17 -13 -8 -5 -4 -4 -4 -4 -3 -2 -1 -0 -0 -1 -3 -4 -5 -3
-6 -6 -6 -6 -8 -12 -17 -20 -21 -22 -24 -25 -22 -22 -24 -27 -28 -28 -27 -26 -26 -25 -24 -22 -20 -19 -19 -18 -14 -8 -4 -4 -4 -4 -4 -4 -1 -1 -2 -4 -3 -3 -3
-6 -6 -6 -9 -13 -18 -19 -21 -23 -23 -21 -19 -18 -19 -22 -27 -28 -27 -27 -25 -23 -22 -21 -20 -20 -17 -15 -14 -13 -14 -10 -6 -4 -4 -4 -4 -3 -2 -3 -4 -4 -4 -4
-6 -8 -12 -16 -19 -19 -21 -23 -22 -19 -17 -17 -18 -21 -26 -27 -26 -25 -23 -20 -18 -16 -14 -13 -13 -14 -13 -12 -11 -10 -8 -7 -6 -4 -4 -4 -4 -3 -3 -4 -5 -5 -4
-11 -15 -19 -19 -19 -20 -20 -19 -19 -18 -18 -20 -24 -26 -26 -24 -22 -19 -16 -13 -11 -10 -8 -8 -9 -10 -11 -11 -11 -11 -7 -6 -5 -5 -4 -5 -4 -4 -4 -4 -5 -6 -5
-17 -19 -19 -19 -19 -17 -16 -17 -19 -21 -23 -24 -24 -23 -21 -18 -16 -15 -14 -14 -14 -12 -10 -8 -7 -7 -8 -9 -10 -9 -8 -5 -5 -5 -5 -5 -5 -4 -5 -4 -5 -5 -5
-19 -19 -19 -17 -15 -14 -15 -19 -21 -23 -23 -23 -21 -18 -16 -15 -15 -17 -18 -18 -18 -17 -16 -14 -12 -9 -8 -8 -8 -8 -7 -6 -4 -4 -4 -4 -5 -4 -4 -5 -5 -5 -6

GFSMW_850_dewp_147.txt.gz
Dewpoint
-1 -1 -1 -0 -0 -2 -3 -3 -3 -3 -3 -3 -4 -1 -1 -3 -3 -2 -1 -1 -1 -1 -1 -1 -2 -5 -10 -19 -22 -25 -25 -23 -13 -4 -2 1 5 5 4 4 3 -3 -3
-2 -2 -1 -1 -2 -2 -2 -2 -2 -2 -2 -2 -3 -1 -2 -4 -2 -1 -1 -1 -2 -2 -3 -6 -10 -14 -18 -21 -23 -25 -26 -24 -21 -18 -13 1 1 1 1 1 -1 -4 -5
-3 -3 -2 -2 -3 -3 -3 -2 -2 -2 -1 -1 -1 -0 -3 -4 -2 -1 -1 -2 -3 -5 -6 -11 -17 -17 -18 -19 -21 -23 -25 -25 -23 -21 -19 -15 -11 -12 -12 -10 -7 -7 -8
-5 -5 -4 -4 -5 -5 -2 -2 -1 -1 -1 -0 0 -1 -4 -4 -3 -2 -1 -2 -3 -4 -7 -12 -16 -15 -16 -17 -18 -20 -22 -24 -24 -22 -20 -18 -17 -16 -14 -14 -14 -14 -12
-8 -8 -7 -7 -6 -5 -3 -2 -0 -0 -0 1 -0 -4 -4 -5 -4 -3 -2 -2 -3 -5 -7 -11 -15 -15 -14 -14 -14 -15 -17 -20 -23 -24 -22 -20 -18 -18 -17 -15 -14 -16 -17
-9 -9 -10 -10 -10 -7 -5 -2 -0 0 1 1 -2 -4 -4 -4 -5 -4 -3 -2 -3 -4 -6 -11 -14 -14 -13 -12 -12 -12 -12 -13 -16 -20 -23 -22 -20 -18 -18 -18 -18 -18 -18
-8 -6 -5 -6 -6 -7 -6 -2 -0 1 1 -1 -3 -3 -3 -3 -3 -4 -3 -2 -2 -3 -4 -7 -12 -14 -13 -12 -11 -10 -10 -10 -10 -12 -15 -19 -21 -20 -19 -18 -18 -18 -18
-3 -1 -1 -2 -2 -2 -1 -1 0 -0 -2 -3 -3 -2 -2 -2 -2 -2 -3 -3 -2 -2 -2 -4 -7 -11 -12 -12 -12 -10 -9 -8 -8 -9 -10 -11 -14 -17 -19 -19 -18 -17 -18
-0 -0 -0 -1 -1 -2 -3 -4 -3 -3 -3 -3 -3 -3 -2 -1 -1 -2 -3 -2 -2 -2 -2 -2 -3 -5 -7 -9 -11 -11 -11 -9 -8 -7 -7 -7 -9 -11 -14 -16 -18 -18 -15
0 -1 -3 -3 -4 -6 -8 -9 -9 -8 -5 -4 -3 -2 -3 -3 -3 -3 -2 -2 -2 -1 -1 -1 -1 -1 -2 -3 -3 -5 -8 -10 -10 -9 -8 -7 -7 -7 -8 -10 -13 -16 -17
-1 -2 -5 -8 -9 -9 -9 -10 -10 -9 -8 -6 -3 -2 -1 -1 -2 -2 -2 -2 -2 -1 -1 -1 -0 -0 -0 -0 -0 -0 -0 -1 -2 -6 -9 -9 -8 -7 -7 -7 -9 -11 -14
-3 -7 -8 -9 -9 -9 -10 -11 -10 -8 -7 -7 -6 -5 -4 -4 -4 -5 -5 -5 -4 -4 -4 -3 -3 -2 -2 -1 -0 0 0 0 0 0 -2 -4 -8 -8 -8 -7 -7 -7 -9
-6 -8 -8 -8 -9 -9 -9 -9 -9 -8 -7 -6 -6 -6 -5 -6 -6 -6 -6 -7 -7 -7 -7 -6 -6 -6 -6 -4 -3 -2 -1 0 1 1 1 0 -2 -4 -7 -8 -8 -7 -8
-7 -8 -8 -8 -8 -8 -8 -9 -8 -7 -6 -6 -6 -6 -6 -7 -9 -9 -9 -9 -9 -9 -8 -8 -9 -9 -9 -8 -7 -5 -3 -1 -0 1 1 1 0 -1 -2 -6 -8 -8 -8
-7 -8 -8 -8 -8 -8 -8 -7 -7 -6 -6 -6 -8 -9 -8 -8 -8 -8 -9 -9 -8 -8 -8 -7 -7 -7 -6 -6 -6 -6 -6 -6 -3 -1 0 1 1 1 -0 -3 -5 -7 -8
-8 -8 -7 -7 -7 -8 -7 -6 -6 -8 -9 -7 -7 -8 -9 -10 -13 -14 -16 -16 -15 -13 -12 -10 -10 -9 -8 -7 -6 -5 -4 -4 -4 -4 -4 -2 1 1 1 -1 -3 -5 -7
-8 -8 -7 -7 -7 -7 -6 -8 -8 -7 -7 -8 -10 -16 -21 -23 -26 -28 -29 -29 -30 -29 -28 -26 -21 -17 -14 -9 -6 -5 -4 -4 -4 -4 -4 -3 -2 0 1 1 -1 -4 -5
-8 -7 -7 -7 -6 -6 -8 -7 -7 -8 -11 -17 -20 -24 -26 -27 -27 -26 -27 -28 -29 -30 -29 -29 -28 -26 -26 -21 -16 -11 -6 -4 -4 -4 -4 -4 -3 -1 -0 1 -0 -3 -4
-7 -7 -7 -6 -6 -8 -6 -7 -10 -17 -18 -22 -23 -24 -21 -19 -19 -20 -24 -28 -29 -30 -30 -28 -27 -26 -26 -24 -20 -17 -16 -15 -11 -6 -4 -4 -3 -3 -1 0 0 -1 -3
-7 -7 -6 -6 -7 -6 -8 -14 -18 -20 -21 -22 -20 -19 -17 -17 -18 -22 -27 -29 -28 -27 -26 -24 -23 -21 -20 -20 -18 -16 -14 -12 -12 -12 -11 -4 -4 -4 -2 -1 -1 -1 -1
-7 -6 -6 -6 -6 -9 -14 -19 -19 -21 -21 -19 -17 -15 -17 -20 -25 -27 -27 -25 -23 -22 -21 -21 -20 -18 -17 -16 -15 -16 -15 -12 -11 -8 -8 -9 -7 -4 -3 -2 -1 -1 -2
-6 -6 -6 -6 -9 -15 -19 -19 -20 -20 -18 -15 -15 -18 -22 -25 -26 -24 -23 -21 -20 -19 -18 -18 -18 -16 -14 -12 -11 -11 -12 -12 -11 -10 -6 -6 -7 -6 -4 -3 -2 -2 -3
-6 -6 -7 -11 -16 -19 -20 -20 -19 -16 -15 -16 -20 -23 -26 -26 -23 -22 -21 -20 -20 -19 -18 -17 -16 -16 -15 -14 -12 -9 -9 -11 -10 -11 -9 -4 -4 -5 -4 -4 -3 -3 -4
-7 -10 -14 -19 -19 -20 -19 -17 -17 -17 -19 -21 -24 -25 -24 -23 -22 -20 -21 -22 -23 -22 -22 -22 -22 -21 -18 -14 -10 -8 -5 -5 -7 -10 -9 -8 -4 -4 -4 -4 -4 -3 -4
-11 -17 -19 -19 -19 -17 -16 -18 -19 -21 -24 -25 -24 -24 -23 -21 -20 -20 -20 -20 -19 -18 -18 -19 -20 -16 -14 -10 -6 -5 -5 -5 -4 -5 -5 -6 -6 -4 -4 -5 -5 -4 -4
-17 -19 -19 -17 -16 -15 -16 -20 -24 -24 -24 -25 -24 -23 -21 -19 -18 -18 -18 -18 -18 -19 -20 -22 -21 -21 -17 -17 -11 -6 -6 -6 -6 -5 -5 -4 -4 -5 -4 -4 -5 -5 -4

GFSMW_850_dewp_150.txt.gz
Dewpoint
3 1 1 0 -0 -3 -3 -4 -4 -4 -4 -4 -4 -3 -1 -3 -3 -1 -2 -1 -2 -2 -2 -2 -5 -8 -14 -20 -22 -24 -25 -23 -15 2 4 -5 -0 3 3 2 2 1 -7
1 0 1 0 -0 -2 -2 -3 -3 -3 -3 -3 -2 -2 -1 -3 -3 -1 -1 -2 -2 -3 -5 -8 -12 -17 -18 -20 -22 -23 -25 -25 -22 -4 0 1 4 0 -2 -2 -2 -4 -7
0 -1 -1 -1 -1 -1 -2 -3 -2 -3 -3 -1 -1 -1 -1 -3 -3 -2 -2 -2 -2 -4 -6 -8 -14 -17 -17 -18 -19 -21 -23 -25 -24 -22 -14 -5 -6 -2 -5 -12 -10 -10 -9
-2 -2 -2 -1 -2 -2 -2 -2 -2 -2 -2 -1 -1 -0 -2 -3 -4 -3 -3 -2 -2 -4 -5 -8 -13 -17 -16 -16 -16 -16 -18 -21 -24 -24 -22 -19 -17 -7 -8 -9 -14 -15 -14
-4 -4 -3 -3 -3 -3 -2 -2 -2 -1 -0 -0 0 -1 -3 -3 -5 -5 -4 -2 -3 -4 -5 -8 -12 -16 -16 -15 -13 -13 -13 -15 -17 -21 -23 -23 -21 -18 -11 -9 -7 -12 -16
-6 -7 -6 -6 -5 -4 -3 -3 -2 -1 0 1 0 -1 -2 -3 -4 -4 -5 -4 -3 -3 -4 -6 -9 -14 -15 -14 -13 -12 -11 -11 -11 -13 -16 -20 -19 -12 -11 -8 -10 -10 -15
-8 -9 -9 -10 -9 -9 -7 -5 -3 -1 1 1 -1 -2 -2 -2 -3 -3 -3 -4 -4 -3 -3 -4 -6 -8 -12 -13 -13 -12 -11 -10 -9 -9 -10 -11 -14 -16 -19 -19 -14 -11 -13
-6 -6 -5 -6 -6 -7 -8 -6 -3 0 1 -1 -2 -2 -1 -2 -3 -3 -2 -3 -3 -3 -2 -2 -3 -4 -6 -8 -10 -12 -12 -11 -10 -9 -8 -8 -8 -10 -13 -16 -13 -10 -9
-0 -2 -1 -2 -2 -2 -2 -1 0 -1 -2 -3 -3 -2 -3 -3 -3 -3 -3 -2 -2 -2 -2 -1 -1 -2 -2 -3 -4 -6 -6 -8 -10 -11 -10 -9 -8 -8 -8 -9 -12 -14 -10
1 0 -0 -1 -2 -2 -3 -4 -5 -5 -5 -4 -3 -2 -2 -2 -2 -2 -1 -2 -2 -2 -2 -1 -1 -1 -1 -1 -1 -1 -1 -1 -1 -3 -5 -9 -9 -9 -8 -8 -8 -10 -12
1 -0 -2 -4 -6 -8 -9 -9 -9 -9 -8 -6 -5 -4 -2 -1 -1 -1 -3 -4 -4 -4 -4 -3 -3 -3 -2 -1 -1 -1 -0 -0 -0 -0 -0 -1 -2 -5 -8 -8 -8 -8 -9
-1 -4 -7 -8 -8 -9 -9 -9 -10 -9 -8 -7 -7 -6 -5 -5 -5 -6 -6 -6 -6 -6 -6 -6 -6 -6 -6 -5 -5 -4 -3 -2 -1 -1 1 0 0 -0 -1 -4 -7 -8 -8
-4 -7 -8 -8 -9 -9 -9 -9 -9 -9 -9 -7 -6 -6 -6 -6 -6 -7 -8 -9 -9 -9 -8 -8 -8 -8 -8 -8 -8 -8 -7 -6 -5 -4 -2 -1 0 1 0 -0 -2 -3 -6
-6 -7 -8 -8 -8 -8 -8 -8 -9 -9 -8 -7 -7 -6 -7 -9 -9 -8 -9 -10 -11 -12 -12 -11 -11 -10 -9 -8 -7 -6 -5 -5 -5 -6 -6 -5 -2 -0 0 1 -0 -1 -3
-6 -7 -8 -8 -8 -8 -8 -8 -8 -7 -7 -7 -8 -9 -8 -9 -11 -14 -19 -22 -24 -25 -25 -26 -23 -21 -18 -13 -9 -6 -6 -6 -5 -5 -5 -4 -4 -3 -1 1 1 -1 -2
-7 -7 -7 -7 -7 -8 -8 -8 -7 -7 -9 -8 -7 -9 -12 -20 -24 -26 -29 -29 -29 -29 -29 -29 -30 -30 -29 -27 -23 -19 -14 -10 -7 -6 -6 -5 -5 -4 -3 -2 -0 1 -0
-7 -7 -7 -7 -7 -8 -7 -6 -8 -8 -7 -8 -12 -20 -23 -24 -26 -23 -21 -21 -23 -25 -28 -29 -29 -29 -29 -28 -27 -25 -22 -19 -19 -18 -14 -9 -6 -4 -4 -4 -2 -0 1
-7 -8 -7 -7 -7 -7 -6 -8 -7 -7 -9 -17 -20 -23 -23 -20 -18 -17 -18 -20 -25 -29 -30 -30 -29 -27 -28 -27 -25 -24 -24 -22 -19 -15 -14 -13 -12 -11 -6 -4 -3 -1 -0
-8 -8 -7 -7 -7 -7 -8 -7 -7 -11 -17 -21 -22 -21 -18 -16 -16 -17 -22 -27 -29 -30 -29 -28 -27 -26 -24 -22 -19 -17 -16 -16 -16 -15 -14 -14 -13 -11 -10 -7 -4 -3 -2
-8 -7 -7 -7 -6 -8 -6 -8 -13 -19 -20 -22 -20 -17 -16 -15 -17 -22 -26 -28 -27 -27 -27 -26 -25 -24 -21 -19 -17 -15 -12 -12 -11 -11 -10 -10 -12 -13 -7 -5 -3 -3 -3
-7 -7 -7 -6 -7 -6 -8 -14 -19 -20 -21 -19 -17 -15 -16 -19 -22 -27 -27 -26 -25 -26 -26 -26 -26 -25 -24 -23 -18 -17 -14 -12 -10 -9 -10 -10 -10 -10 -12 -8 -4 -3 -3
-7 -7 -6 -7 -6 -9 -14 -19 -20 -20 -18 -16 -15 -17 -19 -24 -26 -27 -26 -24 -23 -23 -23 -22 -22 -22 -22 -25 -25 -22 -18 -15 -12 -11 -9 -7 -9 -9 -8 -10 -9 -5 -4
-6 -6 -6 -6 -9 -15 -19 -20 -19 -17 -15 -15 -17 -20 -24 -27 -26 -24 -22 -20 -20 -21 -20 -19 -20 -20 -22 -24 -24 -22 -17 -10 -6 -8 -7 -7 -8 -8 -6 -6 -6 -4 -3
-6 -6 -7 -11 -17 -20 -20 -18 -16 -15 -17 -18 -23 -27 -28 -27 -25 -21 -20 -18 -19 -18 -17 -17 -19 -20 -21 -22 -19 -16 -10 -6 -6 -6 -7 -8 -6 -7 -5 -4 -4 -4 -4
-7 -10 -15 -19 -20 -18 -16 -16 -17 -19 -23 -27 -29 -28 -26 -24 -23 -22 -20 -19 -19 -17 -16 -17 -18 -18 -19 -20 -17 -11 -8 -6 -6 -6 -6 -6 -6 -6 -7 -6 -5 -5 -5
-12 -17 -19 -19 -17 -15 -17 -20 -24 -28 -28 -27 -26 -25 -23 -23 -23 -22 -22 -22 -22 -22 -21 -21 -20 -19 -18 -18 -16 -9 -6 -6 -6 -6 -6 -6 -6 -7 -7 -7 -7 -6 -5

GFSMW_850_dewp_153.txt.gz
Dewpoint
4 4 5 3 -0 -2 -5 -6 -5 -7 -5 -4 -3 -2 3 -2 -4 -4 -3 -2 -2 -3 -3 -4 -7 -11 -16 -20 -22 -24 -25 -21 -22 -16 5 4 -1 -3 0 2 1 -2 -3
4 4 5 2 -0 -2 -4 -4 -4 -5 -3 -3 -3 -2 -1 -2 -4 -5 -3 -2 -2 -4 -6 -8 -11 -17 -19 -19 -20 -22 -23 -24 -24 -15 -6 -1 3 3 -1 -4 -4 -5 -5
3 4 5 2 0 -1 -2 -3 -3 -3 -2 -3 -2 -1 -1 -3 -6 -5 -4 -2 -3 -4 -6 -7 -10 -16 -18 -17 -18 -18 -20 -22 -22 -24 -19 -4 -5 -4 -4 -7 -11 -11 -11
1 2 3 2 -1 -1 -2 -2 -3 -2 -2 -2 -1 -1 -1 -2 -6 -6 -5 -3 -3 -4 -5 -6 -9 -13 -17 -16 -15 -15 -15 -17 -19 -19 -21 -22 -18 -10 -8 -5 -8 -9 -12
0 1 2 -1 -1 -1 -2 -3 -2 -1 -1 -1 -1 -1 -2 -5 -6 -6 -5 -4 -4 -4 -4 -5 -7 -10 -14 -15 -14 -13 -13 -12 -13 -14 -16 -17 -19 -18 -11 -9 -9 -5 -7
-1 -1 1 0 -0 -1 -2 -2 -2 -1 -1 -1 -0 -0 -2 -5 -5 -4 -3 -3 -4 -4 -3 -3 -4 -5 -8 -13 -14 -14 -13 -11 -11 -10 -10 -11 -14 -11 -8 -6 -8 -9 -10
-3 -3 -3 -3 -3 -3 -3 -2 -2 -1 -1 -0 0 -0 -3 -3 -3 -2 -1 -1 -2 -2 -3 -3 -3 -3 -4 -6 -9 -11 -12 -12 -12 -11 -10 -9 -9 -9 -11 -14 -14 -11 -11
-5 -4 -6 -8 -7 -6 -5 -4 -3 -1 -2 -0 1 -2 -3 -2 -3 -2 -1 -1 -2 -3 -2 -2 -2 -2 -2 -3 -3 -4 -6 -7 -8 -10 -11 -11 -10 -9 -8 -8 -10 -10 -9
-2 1 -2 -5 -8 -8 -8 -8 -5 -3 -0 0 -2 -2 -2 -3 -3 -2 -2 -3 -3 -3 -2 -2 -2 -1 -1 -1 -1 -1 -1 -1 -2 -2 -2 -3 -6 -8 -9 -9 -8 -9 -7
2 2 1 0 0 -2 -3 -2 -1 0 -2 -3 -3 -2 -1 -2 -1 -1 -1 -2 -3 -4 -4 -4 -3 -3 -3 -2 -2 -2 -2 -2 -1 -1 -1 -1 -1 -1 -2 -4 -7 -8 -8
3 3 2 -0 -1 -1 -2 -3 -5 -7 -7 -7 -5 -4 -3 -1 0 -1 -4 -5 -6 -6 -6 -6 -6 -6 -6 -6 -6 -6 -5 -5 -5 -3 -3 -3 -1 -0 -0 -1 -2 -3 -6
2 -0 -2 -3 -6 -7 -8 -8 -8 -9 -9 -8 -7 -6 -5 -5 -5 -6 -6 -7 -8 -9 -9 -9 -9 -8 -8 -8 -8 -7 -7 -6 -6 -6 -3 -5 -3 -2 -1 -0 -1 -1 -1
-2 -4 -4 -5 -5 -7 -8 -9 -9 -9 -9 -9 -7 -6 -6 -6 -7 -8 -9 -9 -9 -11 -13 -14 -14 -14 -13 -11 -9 -8 -7 -6 -6 -6 -5 -5 -4 -3 -3 -2 -2 -1 -1
-4 -5 -5 -5 -5 -6 -8 -8 -8 -9 -9 -8 -7 -6 -7 -8 -9 -9 -12 -17 -21 -25 -27 -28 -29 -29 -29 -28 -26 -23 -20 -18 -15 -12 -10 -7 -5 -4 -3 -2 -2 -2 -3
-5 -5 -6 -6 -5 -8 -8 -8 -8 -8 -7 -7 -7 -8 -8 -9 -13 -21 -24 -27 -28 -25 -24 -24 -25 -27 -29 -29 -28 -26 -26 -25 -24 -23 -21 -18 -14 -10 -6 -4 -3 -2 -2
-5 -5 -5 -5 -6 -8 -8 -8 -8 -7 -7 -8 -8 -8 -11 -21 -23 -25 -24 -20 -19 -18 -21 -26 -28 -30 -30 -30 -29 -26 -25 -27 -26 -25 -23 -21 -14 -15 -15 -15 -13 -7 -3
-5 -6 -5 -6 -7 -8 -8 -7 -7 -8 -8 -7 -8 -16 -22 -23 -23 -18 -16 -15 -17 -22 -26 -29 -30 -31 -31 -30 -29 -27 -24 -21 -19 -18 -17 -17 -15 -14 -14 -13 -12 -10 -8
-5 -5 -5 -5 -7 -7 -7 -7 -8 -8 -7 -9 -18 -21 -22 -20 -17 -15 -15 -19 -22 -25 -28 -30 -30 -29 -30 -30 -28 -24 -21 -19 -17 -16 -14 -13 -13 -13 -13 -13 -12 -10 -6
-6 -5 -5 -6 -7 -7 -7 -8 -7 -7 -10 -18 -21 -21 -19 -16 -14 -16 -19 -22 -26 -29 -30 -29 -30 -30 -29 -29 -28 -26 -22 -19 -18 -17 -15 -13 -11 -11 -11 -10 -8 -10 -10
-6 -6 -6 -7 -7 -7 -7 -7 -7 -11 -18 -20 -21 -19 -16 -14 -17 -19 -22 -26 -28 -28 -27 -27 -27 -27 -27 -26 -26 -25 -25 -24 -20 -17 -16 -13 -9 -5 -4 -4 -4 -4 -4
-5 -7 -7 -7 -6 -7 -7 -7 -12 -18 -20 -21 -19 -16 -15 -16 -18 -22 -27 -29 -28 -27 -26 -25 -24 -22 -20 -22 -26 -26 -23 -23 -20 -17 -15 -11 -10 -8 -4 -4 -4 -4 -4
-6 -7 -7 -6 -7 -7 -8 -13 -19 -20 -20 -18 -15 -15 -17 -20 -26 -29 -30 -28 -26 -24 -22 -21 -21 -21 -21 -18 -22 -22 -22 -21 -17 -19 -15 -9 -7 -5 -5 -5 -5 -5 -4
-6 -6 -6 -7 -7 -8 -13 -19 -20 -19 -16 -15 -16 -18 -23 -29 -30 -28 -27 -26 -25 -24 -22 -17 -15 -15 -15 -15 -21 -20 -17 -14 -11 -12 -10 -9 -11 -6 -6 -6 -6 -6 -7
-6 -6 -6 -7 -9 -14 -19 -20 -18 -15 -15 -16 -21 -28 -30 -29 -26 -25 -24 -23 -22 -20 -17 -15 -15 -17 -16 -14 -14 -11 -8 -7 -6 -6 -6 -6 -6 -6 -6 -6 -6 -7 -7
-6 -6 -8 -11 -16 -19 -18 -16 -15 -16 -19 -26 -28 -26 -24 -23 -22 -20 -19 -18 -18 -17 -16 -16 -15 -14 -14 -12 -7 -6 -6 -6 -6 -6 -6 -6 -6 -6 -6 -6 -6 -7 -7
-7 -11 -15 -19 -19 -17 -15 -16 -20 -26 -27 -25 -23 -22 -21 -20 -19 -19 -18 -18 -18 -17 -16 -16 -14 -14 -8 -6 -6 -6 -6 -7 -7 -7 -7 -7 -7 -7 -7 -7 -7 -8 -8

GFSMW_850_dewp_156.txt.gz
Dewpoint
5 4 4 3 2 -1 -5 -8 -8 -7 -8 -7 -5 -4 -4 -2 -4 -6 -4 -4 -3 -4 -5 -6 -9 -14 -18 -21 -21 -22 -23 -21 -22 -20 1 3 -1 2 -0 -3 -2 -3 -6
5 4 4 3 1 -2 -6 -7 -6 -6 -5 -5 -3 -3 -2 -2 -4 -6 -5 -4 -4 -5 -6 -8 -10 -15 -19 -19 -19 -20 -21 -20 -20 -23 -19 -3 1 4 2 -7 -9 -11 -14
4 4 5 3 1 -2 -5 -5 -5 -4 -4 -5 -3 -2 -1 -2 -5 -7 -7 -5 -5 -5 -6 -6 -8 -11 -17 -18 -17 -17 -17 -18 -19 -19 -22 -14 -4 -5 -9 -9 -9 -11 -13
4 4 4 3 0 -2 -2 -3 -3 -3 -4 -4 -3 -2 -1 -3 -5 -7 -8 -6 -6 -5 -5 -5 -6 -8 -12 -16 -17 -16 -14 -14 -14 -15 -15 -17 -20 -20 -17 -9 -11 -14 -10
4 4 3 2 -0 -1 -2 -2 -2 -3 -3 -3 -3 -2 -1 -3 -6 -5 -5 -5 -6 -5 -4 -3 -4 -5 -7 -11 -14 -15 -14 -13 -12 -12 -11 -12 -13 -14 -13 -13 -12 -7 -7
2 2 2 1 0 -0 -0 -1 -2 -2 -3 -2 -2 -1 -0 -3 -5 -4 -3 -4 -4 -4 -4 -4 -3 -3 -4 -5 -7 -10 -12 -13 -13 -12 -11 -10 -10 -11 -10 -8 -10 -11 -10
1 1 1 2 1 -0 -1 -1 -2 -2 -2 -2 -1 -0 0 -3 -4 -2 -3 -3 -2 -2 -3 -4 -3 -3 -3 -3 -3 -4 -4 -6 -7 -9 -10 -10 -11 -10 -9 -9 -9 -10 -9
-1 -0 0 0 0 -0 -1 -1 -2 -2 -2 -2 -1 1 -1 -2 -2 -3 -3 -3 -4 -3 -2 -2 -2 -2 -2 -2 -2 -2 -2 -2 -2 -2 -2 -3 -3 -5 -7 -9 -9 -9 -9
-3 -2 -2 -2 -2 -2 -3 -4 -3 -1 -2 -2 -0 0 -2 -2 -3 -3 -4 -3 -3 -3 -3 -3 -4 -4 -3 -3 -3 -3 -3 -3 -3 -2 -2 -2 -2 -1 -1 -2 -4 -7 -7
-4 -3 -2 -3 -5 -6 -6 -6 -5 -3 -2 -0 -0 -1 -2 -3 -3 -2 -2 -2 -4 -4 -5 -5 -6 -6 -6 -6 -6 -7 -7 -6 -6 -5 -5 -5 -4 -4 -2 -1 -1 -1 -4
0 2 2 1 -2 -3 -3 -4 -2 -1 -0 -2 -3 -3 -3 -4 -2 -2 -3 -5 -5 -6 -7 -8 -9 -8 -8 -8 -8 -8 -8 -8 -8 -7 -7 -7 -5 -6 -5 -4 -3 -2 -2
3 3 2 0 -0 -0 -1 -1 -3 -5 -8 -8 -7 -7 -6 -5 -5 -6 -6 -6 -8 -9 -9 -11 -15 -16 -17 -18 -17 -16 -13 -12 -11 -9 -6 -7 -5 -4 -4 -4 -3 -3 -3
2 0 -2 -2 -3 -5 -7 -8 -8 -9 -9 -9 -8 -7 -6 -6 -6 -6 -8 -8 -11 -17 -22 -27 -28 -28 -27 -27 -27 -27 -26 -25 -25 -24 -22 -20 -14 -11 -7 -4 -3 -2 -2
-2 -3 -4 -4 -5 -7 -8 -9 -9 -9 -9 -9 -7 -7 -7 -6 -8 -8 -11 -18 -25 -27 -24 -22 -22 -24 -26 -28 -29 -29 -29 -30 -29 -28 -27 -26 -23 -20 -17 -13 -9 -4 -2
-4 -5 -5 -5 -6 -7 -8 -9 -9 -9 -8 -7 -7 -6 -8 -8 -9 -17 -24 -26 -21 -18 -17 -19 -23 -25 -28 -30 -30 -29 -29 -30 -30 -30 -28 -25 -23 -19 -15 -9 -6 -5 -4
-5 -5 -5 -6 -7 -8 -9 -9 -8 -8 -7 -7 -8 -8 -8 -13 -22 -24 -20 -16 -14 -15 -19 -20 -23 -26 -30 -31 -31 -29 -29 -29 -27 -25 -24 -23 -21 -20 -18 -15 -12 -8 -4
-5 -5 -6 -6 -7 -8 -8 -8 -8 -7 -7 -8 -7 -9 -17 -22 -22 -17 -15 -13 -15 -17 -19 -23 -27 -29 -31 -32 -31 -30 -28 -26 -25 -24 -21 -19 -19 -17 -15 -14 -12 -10 -8
-5 -5 -6 -6 -7 -7 -7 -8 -7 -8 -8 -7 -9 -18 -22 -21 -17 -14 -13 -15 -16 -18 -21 -25 -29 -31 -32 -31 -30 -28 -26 -26 -26 -26 -25 -23 -19 -16 -13 -11 -11 -9 -8
-5 -6 -6 -6 -7 -7 -7 -7 -8 -8 -7 -10 -18 -21 -20 -17 -14 -13 -15 -16 -17 -21 -27 -30 -31 -30 -30 -28 -27 -28 -27 -26 -27 -26 -26 -24 -20 -18 -12 -5 -4 -4 -5
-5 -6 -5 -6 -7 -7 -7 -7 -7 -7 -10 -17 -20 -20 -18 -15 -14 -15 -16 -20 -26 -30 -31 -30 -29 -27 -26 -25 -23 -24 -23 -22 -22 -23 -24 -23 -22 -20 -11 -5 -5 -5 -5
-6 -5 -5 -6 -7 -7 -7 -7 -7 -10 -16 -20 -20 -17 -14 -14 -15 -17 -24 -29 -30 -29 -27 -26 -24 -23 -23 -22 -21 -20 -18 -18 -18 -17 -18 -17 -14 -10 -7 -5 -5 -5 -5
-5 -5 -6 -6 -6 -7 -7 -8 -12 -17 -20 -20 -16 -14 -14 -16 -21 -27 -28 -27 -25 -23 -22 -21 -21 -20 -19 -17 -16 -14 -11 -10 -8 -8 -8 -8 -7 -6 -6 -5 -6 -5 -5
-5 -5 -6 -6 -7 -7 -9 -12 -17 -20 -18 -15 -14 -15 -19 -25 -27 -25 -24 -22 -21 -20 -19 -18 -18 -17 -17 -16 -15 -13 -10 -7 -6 -6 -6 -6 -6 -6 -6 -6 -6 -6 -6
-5 -5 -6 -7 -7 -10 -14 -18 -19 -17 -14 -14 -17 -22 -25 -26 -24 -23 -21 -20 -19 -18 -17 -17 -16 -16 -15 -15 -12 -8 -6 -6 -6 -7 -7 -7 -7 -6 -6 -6 -7 -7 -7
-5 -6 -7 -8 -11 -16 -19 -18 -16 -15 -16 -20 -23 -25 -25 -24 -24 -22 -20 -19 -19 -17 -15 -15 -13 -12 -12 -9 -6 -6 -6 -7 -7 -7 -8 -8 -7 -7 -8 -8 -7 -7 -8
-7 -8 -9 -13 -18 -18 -16 -15 -15 -17 -20 -24 -25 -25 -25 -23 -22 -21 -21 -21 -19 -18 -17 -16 -14 -13 -9 -9 -7 -7 -7 -7 -7 -7 -7 -9 -9 -9 -8 -8 -9 -8 -8